ARIANE 42P DEB, 44514

Orbit data source: Space-Track

ARIANE 42P DEB, 44514 is space debris in LEO originally from a launch on Mon, 10 Aug 1992 UTC launched from the French Guiana (FRGUI). Debris objects in space refer to the collection of defunct objects orbiting the Earth. Examples of debris include non-operational satellites, rocket bodies, and fragments generated from explosions, collisions, or faulty payload assembly.

Loading next visibility...
Identifier
44514, 1992-052M
Orbit
LEO
Country
Flag of FRFR
Related business
Manufacturer
ArianeGroup
Mission
Spacecraft
Bus & Motor
Unknown
Mass
Unknown
Launch date (UTC)
1992-08-10 (33 years ago)
Launch vehicle
Unknown
Launch site
French Guiana (FRGUI)
Object type
Payload
Rocket body
Debris
Shape & HBR
Unknown shape, 0.1 m
Radar Cross Section
Small (<0.1 m²)

Expand to show TLE details & history
Last TLE update: 21 hours ago

TLE from 21 hours ago
0 ARIANE 42P DEB
1 44514U 92052M   25306.22117600  .00006816  00000-0  21137-1 0  9997
2 44514  65.7811 250.9969 0238478 106.1641 256.5768 12.96277223292327
Epoch: 2025-11-02T05:18Z
TLE epoch observation values (Epoch: 2025-11-02T05:18:29.606Z)
Latitude
-0.00001°
Longitude
129.63352°
Altitude
1,325.085 km
Speed
7.173 km/s
True Right ascension
16h 43m 59s
True Declination
0° 00' 00"
Sunlit
Object was in daylight at epoch
Visualization orbit readout
Latitude
Unknown
Longitude
Unknown
Altitude
Unknown
Speed
Unknown
Apparent Right ascension
Unknown
Apparent Declination
Unknown
Sunlit
N/A
Visualization observer readout
Local Sidereal Time
22:28:29
Azimuth
Unknown
Elevation
Unknown
Doppler factor
Unknown
Orbital elements
Apogee altitude
1,457.808 km
Perigee altitude
1,092.773 km
Semi-major axis
7,653.427 km
Eccentricity
0.02385
Inclination
65.7811°
RAAN
250.9969°
Arg. of periapsis
106.1641°
True anomaly
253.9379°
Mean anomaly
256.5768°
Eccentric anomaly
255.25542°
Mean motion
3.2416 °/min
Orbital period
111.06 mins
BSTAR
0.021137
Loading maneuver chart data...
Computing Atmospheric mass density...
Loading historical data...
Loading historical data...
Loading historical data...
Loading historical data...
Loading historical data...
Loading historical data...
Loading historical data...

Documentation

Showing up to 5 results
|